Bethany Beach, DE-NGTS DE USA current weather conditions

sailwx.info

Wind from 302 at 0 knots gusting 1

Air temperature 5.7° C
Dewpoint 4.5° C

Last reported at 2019-Nov-19 00:00 UTC.
Time now 2019-Nov-19 00:55 UTC

Location: N 38°33' W 075°04'.
View on Google Maps.

See reports from other nearby stations

  
Tides and Currents Weather Stations Pressure Air Temp Water Temp Dewpoint Dewpoint Depression Visibility Wind Speed Wind Dir Waves Ship Positions
date/time (UTC)wind fromknots sea level pressurealtimeterstation pressurevisibilityair tempwater tempwave heightnotes
2019-Nov-19 00:00 302 0 gusting 1 5.7
2019-Nov-18 23:55 307 1 gusting 2 5.8
2019-Nov-18 23:50 316 1 gusting 2 5.8
2019-Nov-18 23:45 311 1 gusting 2 5.8
2019-Nov-18 23:40 317 0 gusting 2 5.8
2019-Nov-18 23:35 313 1 gusting 3 5.9
2019-Nov-18 23:30 318 1 gusting 2 5.9
2019-Nov-18 23:25 316 1 gusting 2 5.9
2019-Nov-18 23:20 315 1 gusting 2 5.9
2019-Nov-18 23:15 315 1 gusting 2 5.9
2019-Nov-18 23:10 309 1 gusting 2 5.9
2019-Nov-18 23:05 323 1 gusting 2 6.0
2019-Nov-18 23:00 332 0 gusting 2 6.0
2019-Nov-18 22:55 328 0 gusting 1 6.1
2019-Nov-18 22:50 310 0 gusting 2 6.1
2019-Nov-18 22:45 324 0 gusting 1 6.1
2019-Nov-18 22:40 336 0 gusting 2 6.1
2019-Nov-18 22:35 328 0 gusting 1 6.2
2019-Nov-18 22:30 334 0 gusting 3 6.2
2019-Nov-18 22:25 320 1 gusting 2 6.2
2019-Nov-18 22:20 324 0 gusting 1 6.2
2019-Nov-18 22:15 325 0 gusting 2 6.2
2019-Nov-18 22:10 327 0 gusting 2 6.2
2019-Nov-18 22:05 340 0 gusting 2 6.2
2019-Nov-18 22:00 020 0 gusting 4 6.2
2019-Nov-18 21:55 359 0 gusting 2 6.3
2019-Nov-18 21:50 038 0 gusting 1 6.3
2019-Nov-18 21:45 333 0 gusting 2 6.4
2019-Nov-18 21:40 336 0 gusting 2 6.4
2019-Nov-18 21:35 331 0 gusting 2 6.5
2019-Nov-18 21:30 336 0 gusting 3 6.6
2019-Nov-18 21:25 329 1 gusting 3 6.6
2019-Nov-18 21:20 326 1 gusting 3 6.6
2019-Nov-18 21:15 331 1 gusting 3 6.7
2019-Nov-18 21:10 337 0 gusting 2 6.7
2019-Nov-18 21:05 351 0 gusting 2 6.6
2019-Nov-18 21:00 329 1 gusting 4 6.5
2019-Nov-18 20:55 327 1 gusting 3 6.5
2019-Nov-18 20:50 334 1 gusting 2 6.6
2019-Nov-18 20:45 326 0 gusting 2 6.5
2019-Nov-18 20:40 341 0 gusting 2 6.5
2019-Nov-18 20:35 329 0 gusting 2 6.5
2019-Nov-18 20:30 327 1 gusting 3 6.5
2019-Nov-18 20:25 331 1 gusting 2 6.5
2019-Nov-18 20:20 329 0 gusting 2 6.5
2019-Nov-18 20:15 339 0 gusting 1 6.4
2019-Nov-18 20:10 339 1 gusting 3 6.4
2019-Nov-18 20:05 331 0 gusting 2 6.5
2019-Nov-18 20:00 340 0 gusting 2 6.4
2019-Nov-18 19:55 330 1 gusting 3 6.5
2019-Nov-18 19:50 355 0 gusting 2 6.6
2019-Nov-18 19:45 332 0 gusting 2 6.5
2019-Nov-18 19:40 334 0 gusting 2 6.4
2019-Nov-18 19:35 003 0 gusting 3 6.4
2019-Nov-18 19:30 346 1 gusting 3 6.3
2019-Nov-18 19:25 334 1 gusting 4 6.2
2019-Nov-18 19:20 005 1 gusting 6 6.2
2019-Nov-18 19:15 027 3 gusting 8 6.2
2019-Nov-18 19:10 009 1 gusting 6 6.3
2019-Nov-18 19:05 011 1 gusting 5 6.2
2019-Nov-18 19:00 014 1 gusting 7 6.1
2019-Nov-18 18:55 025 1 gusting 5 6.1
2019-Nov-18 18:50 359 1 gusting 6 6.1
2019-Nov-18 18:45 013 1 gusting 3 6.0
2019-Nov-18 18:40 335 1 gusting 4 6.0
2019-Nov-18 18:35 345 1 gusting 3 6.1
2019-Nov-18 18:30 359 0 gusting 5 6.4
2019-Nov-18 18:25 352 1 gusting 9 6.3
2019-Nov-18 18:20 350 1 gusting 4 6.3
2019-Nov-18 18:15 347 0 gusting 2 6.3
2019-Nov-18 18:10 338 2 gusting 5 6.0
2019-Nov-18 18:05 342 1 gusting 4 5.9
2019-Nov-18 18:00 347 1 gusting 3 5.9
2019-Nov-18 17:55 336 1 gusting 3 5.9
2019-Nov-18 17:50 339 1 gusting 5 5.9
2019-Nov-18 17:45 338 2 gusting 4 6.0
2019-Nov-18 17:40 336 1 gusting 3 6.0
2019-Nov-18 17:35 335 1 gusting 4 6.1
2019-Nov-18 17:30 343 1 gusting 4 6.0
2019-Nov-18 17:25 351 1 gusting 4 6.0
2019-Nov-18 17:20 352 1 gusting 3 6.0
2019-Nov-18 17:15 340 1 gusting 4 6.0
2019-Nov-18 17:10 337 1 gusting 4 6.0
2019-Nov-18 17:05 359 1 gusting 7 6.0
2019-Nov-18 17:00 002 1 gusting 4 6.0
2019-Nov-18 16:55 343 1 gusting 5 6.0
2019-Nov-18 16:50 349 1 gusting 3 5.9
2019-Nov-18 16:45 336 1 gusting 3 5.9
2019-Nov-18 16:40 350 1 gusting 4 5.9
2019-Nov-18 16:35 345 1 gusting 4 5.9
2019-Nov-18 16:30 340 1 gusting 4 5.9
2019-Nov-18 16:25 342 1 gusting 4 5.9
2019-Nov-18 16:20 339 1 gusting 4 5.8
2019-Nov-18 16:15 332 1 gusting 4 5.9
2019-Nov-18 16:10 347 1 gusting 10 6.0
2019-Nov-18 16:05 339 1 gusting 4 5.9
2019-Nov-18 16:00 348 1 gusting 4 5.9
2019-Nov-18 15:55 348 1 gusting 5 5.8
2019-Nov-18 15:50 350 1 gusting 6 5.7
2019-Nov-18 15:45 351 1 gusting 4 5.7
2019-Nov-18 15:40 346 1 gusting 5 5.6
2019-Nov-18 15:35 346 1 gusting 6 5.6
2019-Nov-18 15:30 352 1 gusting 4 5.5
2019-Nov-18 15:25 007 1 gusting 7 5.4
2019-Nov-18 15:20 001 1 gusting 8 5.4
2019-Nov-18 15:15 002 1 gusting 7 5.4
2019-Nov-18 15:10 355 1 gusting 7 5.5
2019-Nov-18 15:05 356 0 gusting 3 5.4
2019-Nov-18 15:00 358 1 gusting 5 5.4
2019-Nov-18 14:55 003 1 gusting 5 5.4
2019-Nov-18 14:50 005 1 gusting 6 5.3
2019-Nov-18 14:45 349 1 gusting 5 5.2
2019-Nov-18 14:40 354 0 gusting 2 5.2
2019-Nov-18 14:35 357 1 gusting 4 5.3
2019-Nov-18 14:30 344 1 gusting 4 5.3
2019-Nov-18 14:25 342 1 gusting 7 5.3
2019-Nov-18 14:20 342 1 gusting 5 5.3
2019-Nov-18 14:15 001 1 gusting 6 5.3
2019-Nov-18 14:10 355 0 gusting 3 5.4
2019-Nov-18 14:05 337 0 gusting 4 5.3
2019-Nov-18 14:00 354 0 gusting 3 5.3
2019-Nov-18 13:55 005 1 gusting 5 5.3
2019-Nov-18 13:50 349 1 gusting 3 5.3
2019-Nov-18 13:45 005 1 gusting 6 5.2
2019-Nov-18 13:40 011 1 gusting 6 5.3
2019-Nov-18 13:35 009 2 gusting 8 5.2
2019-Nov-18 13:30 019 2 gusting 11 5.2
2019-Nov-18 13:25 017 3 gusting 10 5.2
2019-Nov-18 13:20 012 2 gusting 7 5.3
2019-Nov-18 13:15 016 1 gusting 5 5.3
2019-Nov-18 13:10 018 1 gusting 6 5.2
2019-Nov-18 13:05 009 2 gusting 9 5.3
2019-Nov-18 13:00 014 1 gusting 6 5.3
2019-Nov-18 12:55 002 1 gusting 7 5.3
2019-Nov-18 12:50 357 1 gusting 6 5.3
2019-Nov-18 12:45 356 1 gusting 8 5.3
2019-Nov-18 12:40 359 0 gusting 2 5.3
2019-Nov-18 12:35 359 1 gusting 5 5.3
2019-Nov-18 12:30 355 0 gusting 3 5.4
2019-Nov-18 12:25 354 1 gusting 9 5.4
2019-Nov-18 12:20 005 2 gusting 8 5.5
2019-Nov-18 12:15 353 1 gusting 9 5.6
2019-Nov-18 12:10 344 0 gusting 3 5.7
2019-Nov-18 12:05 009 2 gusting 7 5.7
2019-Nov-18 12:00 021 3 gusting 12 5.7
2019-Nov-18 11:55 023 4 gusting 11 5.7
2019-Nov-18 11:50 030 6 gusting 13 5.7
2019-Nov-18 11:45 030 6 gusting 11 5.7
2019-Nov-18 11:40 032 5 gusting 11 5.7
2019-Nov-18 11:35 032 6 gusting 11 5.7
2019-Nov-18 11:30 035 7 gusting 11 5.7
2019-Nov-18 11:25 036 7 gusting 13 5.7
2019-Nov-18 11:20 030 6 gusting 11 5.7
2019-Nov-18 11:15 029 6 gusting 12 5.7
2019-Nov-18 11:10 026 5 gusting 11 5.7
2019-Nov-18 11:05 032 6 gusting 11 5.7
2019-Nov-18 11:00 036 6 gusting 11 5.7
2019-Nov-18 10:55 033 6 gusting 13 5.7
2019-Nov-18 10:50 034 7 gusting 12 5.7
2019-Nov-18 10:45 030 6 gusting 12 5.8
2019-Nov-18 10:40 030 7 gusting 13 5.8
2019-Nov-18 10:35 031 7 gusting 14 5.8
2019-Nov-18 10:30 031 6 gusting 12 5.9
2019-Nov-18 10:25 031 6 gusting 13 5.9
2019-Nov-18 10:20 026 5 gusting 11 6.0
2019-Nov-18 10:15 027 5 gusting 13 6.0
2019-Nov-18 10:10 033 6 gusting 11 6.1
2019-Nov-18 10:05 033 6 gusting 11 6.1
2019-Nov-18 10:00 029 6 gusting 12 6.1
2019-Nov-18 09:55 032 6 gusting 13 6.0
2019-Nov-18 09:50 029 7 gusting 13 6.0
2019-Nov-18 09:45 032 7 gusting 14 6.0
2019-Nov-18 09:40 025 6 gusting 11 5.9
2019-Nov-18 09:35 027 5 gusting 12 6.0
2019-Nov-18 09:30 030 5 gusting 11 5.9
2019-Nov-18 09:25 029 5 gusting 11 5.9
2019-Nov-18 09:20 024 4 gusting 9 5.9
2019-Nov-18 09:15 024 4 gusting 9 5.9
2019-Nov-18 09:10 030 5 gusting 13 5.9
2019-Nov-18 09:05 025 4 gusting 11 5.9
2019-Nov-18 09:00 022 4 gusting 9 6.0
2019-Nov-18 08:55 024 5 gusting 10 6.0
2019-Nov-18 08:50 024 5 gusting 11 6.0
2019-Nov-18 08:45 024 4 gusting 9 6.0
2019-Nov-18 08:40 023 5 gusting 11 6.0
2019-Nov-18 08:35 030 6 gusting 13 6.0
2019-Nov-18 08:30 029 5 gusting 10 6.0
2019-Nov-18 08:25 023 5 gusting 12 6.0
2019-Nov-18 08:20 026 5 gusting 12 6.1
2019-Nov-18 08:15 026 5 gusting 11 6.1
2019-Nov-18 08:10 026 5 gusting 11 6.1
2019-Nov-18 08:05 026 4 gusting 10 6.1
2019-Nov-18 08:00 031 6 gusting 14 6.1
2019-Nov-18 07:55 030 6 gusting 14 6.0
2019-Nov-18 07:50 032 7 gusting 15 6.0
2019-Nov-18 07:45 033 7 gusting 11 6.0
2019-Nov-18 07:40 032 6 gusting 12 6.0
2019-Nov-18 07:35 027 5 gusting 10 6.0
2019-Nov-18 07:30 030 7 gusting 12 6.0
2019-Nov-18 07:25 029 6 gusting 13 6.0
2019-Nov-18 07:20 024 5 gusting 11 6.0
2019-Nov-18 07:15 030 7 gusting 14 6.0
2019-Nov-18 07:10 030 6 gusting 13 6.1
2019-Nov-18 07:05 031 6 gusting 14 6.1
2019-Nov-18 07:00 025 5 gusting 12 6.1
2019-Nov-18 06:55 031 6 gusting 12 6.2
2019-Nov-18 06:50 033 7 gusting 14 6.2
2019-Nov-18 06:45 029 6 gusting 11 6.3
2019-Nov-18 06:40 037 7 gusting 15 6.2
2019-Nov-18 06:35 033 8 gusting 15 6.3
2019-Nov-18 06:30 033 7 gusting 12 6.3
2019-Nov-18 06:25 032 8 gusting 14 6.3
2019-Nov-18 06:20 037 8 gusting 18 6.3
2019-Nov-18 06:15 032 8 gusting 15 6.3
2019-Nov-18 06:10 029 7 gusting 14 6.3
2019-Nov-18 06:05 033 7 gusting 14 6.3
2019-Nov-18 06:00 033 7 gusting 14 6.3
2019-Nov-18 05:55 028 7 gusting 15 6.3
2019-Nov-18 05:50 031 7 gusting 13 6.4
2019-Nov-18 05:45 037 9 gusting 13 6.4
2019-Nov-18 05:40 034 8 gusting 15 6.4
2019-Nov-18 05:35 031 9 gusting 16 6.4
2019-Nov-18 05:30 032 8 gusting 12 6.4
2019-Nov-18 05:25 034 9 gusting 15 6.5
2019-Nov-18 05:20 033 10 gusting 16 6.4
2019-Nov-18 05:15 036 8 gusting 15 6.5
2019-Nov-18 05:10 039 7 gusting 13 6.5
2019-Nov-18 05:05 038 8 gusting 14 6.5
2019-Nov-18 05:00 036 8 gusting 16 6.6
2019-Nov-18 04:55 036 9 gusting 18 6.6
2019-Nov-18 04:50 035 8 gusting 14 6.6
2019-Nov-18 04:45 032 9 gusting 15 6.6
2019-Nov-18 04:40 035 9 gusting 17 6.7
2019-Nov-18 04:35 035 8 gusting 15 6.7
2019-Nov-18 04:30 036 8 gusting 14 6.7
2019-Nov-18 04:25 039 9 gusting 19 6.7
2019-Nov-18 04:20 043 10 gusting 16 6.7
2019-Nov-18 04:15 040 11 gusting 20 6.7
2019-Nov-18 04:10 042 10 gusting 15 6.7
2019-Nov-18 04:05 043 11 gusting 19 6.7
2019-Nov-18 04:00 044 10 gusting 18 6.7
2019-Nov-18 03:55 040 10 gusting 18 6.7
2019-Nov-18 03:50 041 9 gusting 17 6.7
2019-Nov-18 03:45 041 9 gusting 16 6.7
2019-Nov-18 03:40 039 8 gusting 15 6.7
2019-Nov-18 03:35 044 11 gusting 18 6.6
2019-Nov-18 03:30 037 10 gusting 17 6.6
2019-Nov-18 03:25 037 10 gusting 17 6.6
2019-Nov-18 03:20 037 8 gusting 16 6.6
2019-Nov-18 03:15 038 11 gusting 20 6.6
2019-Nov-18 03:10 040 10 gusting 17 6.6
2019-Nov-18 03:05 036 8 gusting 15 6.6
2019-Nov-18 03:00 035 10 gusting 16 6.6
2019-Nov-18 02:55 041 10 gusting 20 6.6
2019-Nov-18 02:50 039 8 gusting 13 6.6
2019-Nov-18 02:45 037 8 gusting 15 6.6
2019-Nov-18 02:40 038 9 gusting 13 6.6
2019-Nov-18 02:35 034 8 gusting 14 6.7
2019-Nov-18 02:30 037 8 gusting 13 6.7
2019-Nov-18 02:25 034 8 gusting 17 6.7
2019-Nov-18 02:20 032 7 gusting 16 6.7
2019-Nov-18 02:15 034 8 gusting 15 6.8
2019-Nov-18 02:10 032 8 gusting 15 6.8
2019-Nov-18 02:05 037 8 gusting 16 6.9
2019-Nov-18 02:00 034 8 gusting 16 7.0
2019-Nov-18 01:55 035 7 gusting 14 7.0
2019-Nov-18 01:50 037 9 gusting 17 7.1
2019-Nov-18 01:45 033 8 gusting 16 7.2
2019-Nov-18 01:40 039 8 gusting 13 7.2
2019-Nov-18 01:35 037 8 gusting 15 7.2
2019-Nov-18 01:30 040 9 gusting 15 7.3
2019-Nov-18 01:25 040 10 gusting 16 7.2
2019-Nov-18 01:20 039 9 gusting 17 7.2
2019-Nov-18 01:15 037 9 gusting 15 7.1
2019-Nov-18 01:10 035 8 gusting 14 7.1
2019-Nov-18 01:05 038 9 gusting 13 7.0
2019-Nov-18 01:00 035 9 gusting 16 7.0
2019-Nov-18 00:55 031 7 gusting 13 7.0
2019-Nov-18 00:50 037 9 gusting 13 7.2
2019-Nov-18 00:45 034 9 gusting 15 7.2
2019-Nov-18 00:40 037 8 gusting 16 7.2
2019-Nov-18 00:35 035 8 gusting 15 7.1
2019-Nov-18 00:30 037 9 gusting 18 7.1
2019-Nov-18 00:25 034 8 gusting 13 7.1
2019-Nov-18 00:20 035 9 gusting 14 7.1
2019-Nov-18 00:15 038 8 gusting 16 7.2
2019-Nov-18 00:10 039 8 gusting 14 7.1
2019-Nov-18 00:05 034 8 gusting 14 7.1
2019-Nov-18 00:00 036 7 gusting 14 7.0
2019-Nov-17 23:55 036 11 gusting 22 6.9
2019-Nov-17 23:50 034 8 gusting 15 7.0
2019-Nov-17 23:45 035 9 gusting 20 6.9
2019-Nov-17 23:40 038 9 gusting 17 7.0
2019-Nov-17 23:35 033 8 gusting 16 7.2
2019-Nov-17 23:30 035 9 gusting 15 7.2
2019-Nov-17 23:25 033 7 gusting 14 7.3
2019-Nov-17 23:20 037 9 gusting 14 7.2
2019-Nov-17 23:15 034 8 gusting 15 7.3
2019-Nov-17 23:10 036 8 gusting 14 7.4
2019-Nov-17 23:05 040 9 gusting 16 7.4
2019-Nov-17 23:00 037 9 gusting 19 7.4
2019-Nov-17 22:55 038 10 gusting 17 7.4
2019-Nov-17 22:50 036 9 gusting 16 7.5
2019-Nov-17 22:45 039 9 gusting 17 7.6
2019-Nov-17 22:40 038 9 gusting 15 7.6
2019-Nov-17 22:35 042 9 gusting 18 7.6
2019-Nov-17 22:30 040 9 gusting 15 7.5
2019-Nov-17 22:25 039 9 gusting 14 7.5
2019-Nov-17 22:20 039 10 gusting 16 7.5
2019-Nov-17 22:15 040 10 gusting 17 7.5
2019-Nov-17 22:10 042 10 gusting 18 7.6
2019-Nov-17 22:05 042 10 gusting 16 7.7
2019-Nov-17 22:00 040 10 gusting 18 7.7
2019-Nov-17 21:55 041 10 gusting 16 7.7
2019-Nov-17 21:50 042 9 gusting 19 7.7
2019-Nov-17 21:45 038 9 gusting 16 7.7
2019-Nov-17 21:40 043 10 gusting 17 7.7
2019-Nov-17 21:35 041 10 gusting 17 7.8
2019-Nov-17 21:30 043 11 gusting 18 7.8
2019-Nov-17 21:25 040 10 gusting 17 7.9
2019-Nov-17 21:20 043 10 gusting 19 7.9
2019-Nov-17 21:15 040 10 gusting 16 7.7
2019-Nov-17 21:10 039 10 gusting 17 7.7
2019-Nov-17 21:05 042 11 gusting 17 7.6
2019-Nov-17 21:00 040 10 gusting 17 7.7
2019-Nov-17 20:55 040 11 gusting 19 7.8
2019-Nov-17 20:50 040 10 gusting 19 7.9
2019-Nov-17 20:45 041 11 gusting 19 8.0
2019-Nov-17 20:40 041 10 gusting 17 8.1
2019-Nov-17 20:35 038 10 gusting 18 8.1
2019-Nov-17 20:30 043 10 gusting 16 8.2
2019-Nov-17 20:25 043 9 gusting 15 8.1
2019-Nov-17 20:20 045 10 gusting 19 8.0
2019-Nov-17 20:15 043 10 gusting 15 8.1
2019-Nov-17 20:10 044 9 gusting 19 8.0
2019-Nov-17 20:05 046 11 gusting 17 8.0
2019-Nov-17 20:00 046 10 gusting 16 7.9
2019-Nov-17 19:55 041 11 gusting 18 7.9
2019-Nov-17 19:50 043 10 gusting 18 8.0
2019-Nov-17 19:45 040 11 gusting 17 8.0
2019-Nov-17 19:40 044 11 gusting 21 7.9
2019-Nov-17 19:35 041 10 gusting 17 7.9
2019-Nov-17 19:30 042 10 gusting 18 7.9
2019-Nov-17 19:25 044 10 gusting 17 7.9
2019-Nov-17 19:20 038 8 gusting 13 7.8
2019-Nov-17 19:15 036 8 gusting 13 7.8
2019-Nov-17 19:10 039 9 gusting 16 7.7
2019-Nov-17 19:05 036 9 gusting 17 7.6
2019-Nov-17 19:00 037 9 gusting 15 7.6
2019-Nov-17 18:55 037 8 gusting 13 7.6
2019-Nov-17 18:50 039 8 gusting 15 7.6
2019-Nov-17 18:45 036 9 gusting 15 7.6
2019-Nov-17 18:40 038 9 gusting 17 7.6
2019-Nov-17 18:35 039 8 gusting 18 7.6
2019-Nov-17 18:30 037 8 gusting 16 7.6
2019-Nov-17 18:25 036 7 gusting 14 7.6
2019-Nov-17 18:20 037 8 gusting 17 7.5
2019-Nov-17 18:15 040 9 gusting 17 7.5
2019-Nov-17 18:10 035 9 gusting 15 7.6
2019-Nov-17 18:05 037 10 gusting 17 7.6
2019-Nov-17 18:00 035 9 gusting 17 7.7
2019-Nov-17 17:55 040 9 gusting 16 7.7
2019-Nov-17 17:50 040 7 gusting 12 7.5
2019-Nov-17 17:45 037 8 gusting 14 7.5
2019-Nov-17 17:40 041 9 gusting 16 7.5
2019-Nov-17 17:35 039 10 gusting 16 7.4
2019-Nov-17 17:30 039 10 gusting 17 7.3
2019-Nov-17 17:25 035 9 gusting 16 7.2
2019-Nov-17 17:20 037 8 gusting 15 7.2
2019-Nov-17 17:15 038 8 gusting 14 7.3
2019-Nov-17 17:10 039 8 gusting 14 7.2
2019-Nov-17 17:05 036 11 gusting 17 7.0
2019-Nov-17 17:00 035 9 gusting 18 6.9
2019-Nov-17 16:55 036 7 gusting 14 6.9
2019-Nov-17 16:50 037 9 gusting 14 6.8
2019-Nov-17 16:45 033 7 gusting 15 6.8
2019-Nov-17 16:40 033 7 gusting 14 6.6
2019-Nov-17 16:35 035 8 gusting 16 6.6
2019-Nov-17 16:30 035 8 gusting 13 6.5
2019-Nov-17 16:25 034 7 gusting 13 6.6
2019-Nov-17 16:20 039 7 gusting 14 6.5
2019-Nov-17 16:15 033 8 gusting 13 6.4
2019-Nov-17 16:10 035 6 gusting 15 6.4
2019-Nov-17 16:05 038 6 gusting 11 6.4
2019-Nov-17 16:00 039 8 gusting 15 6.3
2019-Nov-17 15:55 037 8 gusting 15 6.1
2019-Nov-17 15:50 035 7 gusting 14 6.1
2019-Nov-17 15:45 035 7 gusting 14 6.0
2019-Nov-17 15:40 037 9 gusting 13 6.0
2019-Nov-17 15:35 042 9 gusting 16 5.9
2019-Nov-17 15:30 042 8 gusting 13 5.7
2019-Nov-17 15:25 040 7 gusting 13 5.7
2019-Nov-17 15:20 040 9 gusting 16 5.5
2019-Nov-17 15:15 039 9 gusting 13 5.3
2019-Nov-17 15:10 042 9 gusting 16 5.4
2019-Nov-17 15:05 038 9 gusting 16 5.3
2019-Nov-17 15:00 041 10 gusting 17 5.2
2019-Nov-17 14:55 036 9 gusting 16 5.1
2019-Nov-17 14:50 036 9 gusting 16 5.1
2019-Nov-17 14:45 040 8 gusting 14 5.0
2019-Nov-17 14:40 035 6 gusting 13 4.9
2019-Nov-17 14:35 036 8 gusting 16 5.0
2019-Nov-17 14:30 037 9 gusting 15 5.1
2019-Nov-17 14:25 036 9 gusting 18 5.1
2019-Nov-17 14:20 038 8 gusting 14 5.0
2019-Nov-17 14:15 038 10 gusting 17 5.0
2019-Nov-17 14:10 036 10 gusting 18 4.9
2019-Nov-17 14:05 035 9 gusting 14 4.9
2019-Nov-17 14:00 038 9 gusting 20 5.1
2019-Nov-17 13:55 039 9 gusting 18 5.0
2019-Nov-17 13:50 039 11 gusting 17 4.9
2019-Nov-17 13:45 037 10 gusting 18 4.9
2019-Nov-17 13:40 039 10 gusting 19 4.8
2019-Nov-17 13:35 035 9 gusting 17 4.8
2019-Nov-17 13:30 037 9 gusting 14 4.8
2019-Nov-17 13:25 036 10 gusting 16 4.8
2019-Nov-17 13:20 037 10 gusting 17 4.8
2019-Nov-17 13:15 039 11 gusting 19 4.9
2019-Nov-17 13:10 038 10 gusting 18 4.9
2019-Nov-17 13:05 036 10 gusting 19 4.9
2019-Nov-17 13:00 037 11 gusting 19 4.9
2019-Nov-17 12:55 035 10 gusting 18 5.0
2019-Nov-17 12:50 034 11 gusting 19 5.1
2019-Nov-17 12:45 037 10 gusting 17 5.0
2019-Nov-17 12:40 034 7 gusting 13 4.9
2019-Nov-17 12:35 031 8 gusting 18 4.8
2019-Nov-17 12:30 035 8 gusting 17 4.7
2019-Nov-17 12:25 032 7 gusting 14 4.6
2019-Nov-17 12:20 035 7 gusting 17 4.5
2019-Nov-17 12:15 030 8 gusting 15 4.5
2019-Nov-17 12:10 027 6 gusting 13 4.5
2019-Nov-17 12:05 030 7 gusting 15 4.6
2019-Nov-17 12:00 033 7 gusting 17 4.7
2019-Nov-17 11:55 035 8 gusting 13 4.7
2019-Nov-17 11:50 032 8 gusting 15 4.7
2019-Nov-17 11:45 025 6 gusting 12 4.8
2019-Nov-17 11:40 023 6 gusting 13 4.8
2019-Nov-17 11:35 031 7 gusting 16 4.9
2019-Nov-17 11:30 029 6 gusting 12 5.1
2019-Nov-17 11:25 028 6 gusting 12 5.1
2019-Nov-17 11:20 027 6 gusting 13 5.3
2019-Nov-17 11:15 025 6 gusting 13 5.3
2019-Nov-17 11:10 024 6 gusting 13 5.5
2019-Nov-17 11:05 024 5 gusting 14 5.7
2019-Nov-17 11:00 029 6 gusting 11 5.8
2019-Nov-17 10:55 029 6 gusting 13 6.1
2019-Nov-17 10:50 034 5 gusting 10 6.2
2019-Nov-17 10:45 031 5 gusting 10 6.6
2019-Nov-17 10:40 041 9 gusting 16 8.5
2019-Nov-17 10:35 056 10 gusting 18 9.0
2019-Nov-17 10:30 055 11 gusting 17 8.9
2019-Nov-17 10:25 059 11 gusting 19 8.8
2019-Nov-17 10:20 060 11 gusting 20 8.8
2019-Nov-17 10:15 061 11 gusting 18 8.9
2019-Nov-17 10:10 063 11 gusting 18 8.9
2019-Nov-17 10:05 060 12 gusting 19 8.9
2019-Nov-17 10:00 058 10 gusting 17 8.7
2019-Nov-17 09:55 062 11 gusting 17 8.7
2019-Nov-17 09:50 063 12 gusting 21 9.0
2019-Nov-17 09:45 068 13 gusting 19 8.9
2019-Nov-17 09:40 067 12 gusting 18 8.9
2019-Nov-17 09:35 068 12 gusting 19 8.8
2019-Nov-17 09:30 067 11 gusting 18 8.8
2019-Nov-17 09:25 068 13 gusting 20 9.0
2019-Nov-17 09:20 073 13 gusting 20 9.0
2019-Nov-17 09:15 071 12 gusting 19 8.9
2019-Nov-17 09:10 069 12 gusting 18 8.6
2019-Nov-17 09:05 073 13 gusting 22 8.6
2019-Nov-17 09:00 072 13 gusting 21 8.8
2019-Nov-17 08:55 077 13 gusting 19 8.9
2019-Nov-17 08:50 071 11 gusting 17 8.6
2019-Nov-17 08:45 070 12 gusting 19 8.5
2019-Nov-17 08:40 069 13 gusting 22 8.8
2019-Nov-17 08:35 073 15 gusting 22 8.9
2019-Nov-17 08:30 075 14 gusting 22 8.7
2019-Nov-17 08:25 073 13 gusting 21 8.8
2019-Nov-17 08:20 072 12 gusting 18 8.5
2019-Nov-17 08:15 076 13 gusting 19 8.6
2019-Nov-17 08:10 072 13 gusting 22 8.6
2019-Nov-17 08:05 072 11 gusting 16 8.6
2019-Nov-17 08:00 079 13 gusting 19 8.6
2019-Nov-17 07:55 078 12 gusting 21 8.7
2019-Nov-17 07:50 074 12 gusting 18 8.5
2019-Nov-17 07:45 075 14 gusting 19 8.5
2019-Nov-17 07:40 075 14 gusting 21 8.7
2019-Nov-17 07:35 074 12 gusting 20 8.6
2019-Nov-17 07:30 074 12 gusting 18 8.6
2019-Nov-17 07:25 074 13 gusting 21 8.6
2019-Nov-17 07:20 074 12 gusting 22 8.5
2019-Nov-17 07:15 075 15 gusting 23 8.7
2019-Nov-17 07:10 075 14 gusting 22 8.8
2019-Nov-17 07:05 078 13 gusting 22 8.7
2019-Nov-17 07:00 080 12 gusting 20 8.5
2019-Nov-17 06:55 078 14 gusting 22 8.8
2019-Nov-17 06:50 078 12 gusting 19 8.6
2019-Nov-17 06:45 073 12 gusting 18 8.5
2019-Nov-17 06:40 075 14 gusting 20 8.8
2019-Nov-17 06:35 076 15 gusting 20 8.8
2019-Nov-17 06:30 074 14 gusting 19 8.7
2019-Nov-17 06:25 074 14 gusting 20 8.6
2019-Nov-17 06:20 075 15 gusting 21 8.5
2019-Nov-17 06:15 080 13 gusting 23 8.7
2019-Nov-17 06:10 073 13 gusting 20 8.5
2019-Nov-17 06:05 076 14 gusting 22 8.5
2019-Nov-17 06:00 076 15 gusting 25 8.4
2019-Nov-17 05:55 070 13 gusting 20 8.2
2019-Nov-17 05:50 069 12 gusting 19 8.1
2019-Nov-17 05:45 075 13 gusting 20 8.3
2019-Nov-17 05:40 075 14 gusting 20 8.3
2019-Nov-17 05:35 073 14 gusting 21 8.1
2019-Nov-17 05:30 077 14 gusting 23 8.3
2019-Nov-17 05:25 075 16 gusting 25 8.2
2019-Nov-17 05:20 075 14 gusting 21 8.1
2019-Nov-17 05:15 076 14 gusting 22 8.3
2019-Nov-17 05:10 073 13 gusting 20 8.0
2019-Nov-17 05:05 074 15 gusting 21 7.9
2019-Nov-17 05:00 072 14 gusting 21 8.0
2019-Nov-17 04:55 077 12 gusting 20 8.2
2019-Nov-17 04:50 076 13 gusting 20 8.1
2019-Nov-17 04:45 076 13 gusting 18 8.0
2019-Nov-17 04:40 078 12 gusting 20 8.1
2019-Nov-17 04:35 078 13 gusting 21 8.0
2019-Nov-17 04:30 076 13 gusting 21 8.2
2019-Nov-17 04:25 075 14 gusting 24 8.5
2019-Nov-17 04:20 073 13 gusting 21 8.2
2019-Nov-17 04:15 076 14 gusting 25 8.2
2019-Nov-17 04:10 078 15 gusting 21 8.2
2019-Nov-17 04:05 077 13 gusting 21 8.2
2019-Nov-17 04:00 073 15 gusting 22 8.1
2019-Nov-17 03:55 074 15 gusting 21 8.2
2019-Nov-17 03:50 075 14 gusting 21 8.2
2019-Nov-17 03:45 074 14 gusting 22 8.2
2019-Nov-17 03:40 074 14 gusting 21 8.1
2019-Nov-17 03:35 070 14 gusting 22 8.1
2019-Nov-17 03:30 074 14 gusting 21 8.2
2019-Nov-17 03:25 075 14 gusting 20 8.1
2019-Nov-17 03:20 074 13 gusting 21 8.1
2019-Nov-17 03:15 080 13 gusting 24 8.1
2019-Nov-17 03:10 079 16 gusting 24 8.3
2019-Nov-17 03:05 068 14 gusting 20 8.2
2019-Nov-17 03:00 078 13 gusting 24 8.2
2019-Nov-17 02:55 079 16 gusting 24 8.2
2019-Nov-17 02:50 074 14 gusting 21 8.0
2019-Nov-17 02:45 078 13 gusting 21 8.2
2019-Nov-17 02:40 078 15 gusting 23 8.2
2019-Nov-17 02:35 078 15 gusting 23 8.2
2019-Nov-17 02:30 080 15 gusting 25 8.4
2019-Nov-17 02:25 074 14 gusting 22 8.3
2019-Nov-17 02:20 071 15 gusting 24 8.4
2019-Nov-17 02:15 078 13 gusting 23 8.4
2019-Nov-17 02:10 076 14 gusting 22 8.4
2019-Nov-17 02:05 074 14 gusting 23 8.4
2019-Nov-17 02:00 077 16 gusting 23 8.4
2019-Nov-17 01:55 077 15 gusting 24 8.3
2019-Nov-17 01:50 071 15 gusting 24 8.3
2019-Nov-17 01:45 068 14 gusting 20 8.2
2019-Nov-17 01:40 069 15 gusting 23 8.2
2019-Nov-17 01:35 069 12 gusting 21 8.1
2019-Nov-17 01:30 070 14 gusting 22 8.0
2019-Nov-17 01:25 070 14 gusting 21 8.2
2019-Nov-17 01:20 073 14 gusting 25 8.0
2019-Nov-17 01:15 065 13 gusting 21 8.0
2019-Nov-17 01:10 073 15 gusting 23 8.0
2019-Nov-17 01:05 060 12 gusting 20 7.6
2019-Nov-17 01:00 070 14 gusting 24 7.8
2019-Nov-17 00:55 070 15 gusting 24 7.8
2019-Nov-17 00:50 070 14 gusting 22 7.7
2019-Nov-17 00:45 069 15 gusting 25 7.7
2019-Nov-17 00:40 070 16 gusting 25 7.7
2019-Nov-17 00:35 069 15 gusting 22 7.7
2019-Nov-17 00:30 072 14 gusting 22 7.6
2019-Nov-17 00:25 063 12 gusting 22 7.6
2019-Nov-17 00:20 074 15 gusting 23 8.0
2019-Nov-17 00:15 071 14 gusting 22 7.9
2019-Nov-17 00:10 070 13 gusting 22 7.9
2019-Nov-17 00:05 067 14 gusting 23 7.9
2019-Nov-17 00:00 072 14 gusting 20 7.9